Weather in Stryn

Norway     61°54′07″N   6°42′26″E
temp.,
°C
wind,
m/s
gust,
m/s
humid.,
%
clouds,
%
prec.,
mm/h
press.,
hPa
HPBL,
m
22 april, thu
thu2223:00−4wnw119898 0.8 101833
02:00−6wsw229985 1.6 101927
05:00−7ssw2297100 0.4 102034
08:00−5w2296100 1.9 1020167
11:00−3w228894 0.6 1021484
14:00−2w239299 1.4 1022543
17:00−2w2392100 0.9 1022462
20:00−3w2297100 2.7 1022277
23 april, fri
fri2323:00−3wnw2398100 2.8 1023115
02:00−5nw229899 4.1 102532
05:00−6wnw1197100 1.0 102628
08:00−5w119689 1.6 1027151
11:00−4wsw218899 0.3 1027402
14:00−3wsw119096 0.8 1028405
17:00−2nw239088 1.1 1028500
20:00−4nnw338986 1.8 102922
24 april, sat
sat2423:00−11nne229886 0.1 103210
02:00−13ene1110082 0.1 103315
05:00−10ene1110098 0.1 103352
08:00−6nne119452 0.2 103294
11:00−3nnw347996 0.1 1031853
14:00−2nnw3480100 0.3 1031864
17:00−2nnw337595 0.2 1031859
20:00−4nnw228413 0.3 103115
25 april, sun
sun2523:00−11ene22925 0.0 103310
02:00−13e229649 0.0 103410
05:00−13e229770 0.0 103310
08:00−8ene219334 0.0 103163
11:00−4nne228210 0.0 1029357
14:00−2n228352 0.0 1027545
17:00−2n228168 0.0 1027554
20:00−3nne118517 0.0 102521
26 april, mon
mon2623:00−9e22905 0.0 102711
02:00−12e22915 0.0 102713
05:00−12e32894 0.0 102612
08:00−8ene22814 0.0 102470
11:00−3ne22711 0.0 1022257
14:00−1ne22781 0.0 1021355
17:000nne22815 0.0 1020344
20:00−2nne22855 0.0 102010